Regional Weather Roundup
Issued by NWS

Home | Current Version | Previous Version | Text Only | Print | Product List | Glossary On
Versions: 1 2 3 4 5 6 7 8 9 10 11 12 13 14 15 16 17 18 19 20 21 22 23 24 25 26 27 28 29 30 31 32 33 34 35 36 37 38 39 40 41 42 43 44 45 46 47 48 49 50
000
ASUS43 KMPX 281901
RWRMN
WEATHER ROUNDUP FOR MINNESOTA
NATIONAL WEATHER SERVICE TWIN CITIES/CHANHASSEN MN
100 PM CST SAT FEB 28 2015


NOTE: "FAIR" INDICATES FEW OR NO CLOUDS BELOW 12,000 FEET WITH NO
SIGNIFICANT WEATHER AND/OR OBSTRUCTIONS TO VISIBILITY. N/A MEANS
CURRENT SKY AND/OR WEATHER CONDITIONS ARE NOT AVAILABLE.

MNZ060>063-068>070-282000-
   Twin Cities Metro

CITY           SKY/WX    TMP DP  RH WIND       PRES   REMARKS
TWIN CITIES    SUNNY     19   1  45 S14G24    30.45F WCI   6
ST PAUL        SUNNY     21   2  43 S20       30.48F WCI   6
CRYSTAL        SUNNY     22   3  44 SW10      30.43F WCI  11
EDEN PRAIRIE   SUNNY     21   4  47 S17G23    30.43F WCI   7
SOUTH ST PAUL  SUNNY     20   5  52 S12G17    30.47F WCI   8
LAKE ELMO      FAIR      19   7  58 S16G24    30.47F WCI   5
$$
MNZ001>005-007-008-013>017-022>024-027-028-282000-
   Northwest Minnesota

CITY           SKY/WX    TMP DP  RH WIND       PRES   REMARKS
BEMIDJI        MOSUNNY   21   6  51 S12       30.19F WCI   9
ROSEAU         PTSUNNY   19   9  63 S16       30.14F WCI   5
WARROAD        PTSUNNY   19   7  58 S10G16    30.15F WCI   8
THIEF RVR FALL PTSUNNY   19  10  68 S17       30.15F WCI   4
CROOKSTON      MOSUNNY   21  14  73 S22       30.18F WCI   5
FOSSTON        MOSUNNY   21  10  63 S21G29    30.17F WCI   6
DETROIT LAKES  SUNNY     23  12  63 S17G24    30.20F WCI   9
MOORHEAD       FAIR      25  12  58 S24       30.20F WCI   9
PARK RAPIDS    PTSUNNY   23   6  48 S20       30.22F WCI   8
MAHNOMEN       CLOUDY    23  13  64 S24G31    30.19F WCI   7
$$
MNZ006-009>011-018-025>026-282000-
   North Central Minnesota

CITY           SKY/WX    TMP DP  RH WIND       PRES   REMARKS
BAUDETTE       CLOUDY    20   5  52 S12       30.16F WCI   8
FLAG ISLAND    PTSUNNY   12   3  67 SE9       30.15F WCI   0
BIG FORK       MOSUNNY   23   3  42 S20G28    30.24F WCI   8
LONGVILLE      SUNNY     21   1  42 S10G20    30.26F WCI  10
GRAND RAPIDS   SUNNY     19   5  53 S20G25    30.27F WCI   4
CRANE LAKE     MOSUNNY   21  -2  35 S9G17     30.28F WCI  11
ORR            MOSUNNY   25  -4  28 S16G23    30.23F WCI  12
COOK           MOSUNNY   21   1  42 S13G21    30.27F WCI   9
WALKER         FAIR      22   1  41 S15G21    30.23F WCI   8
$$
MNZ012-019>021-037-282000-
   Northeast Minnesota

CITY           SKY/WX    TMP DP  RH WIND       PRES   REMARKS
ELY            PTSUNNY   18   0  45 SW14G22   30.29F WCI   4
HIBBING        SUNNY     20  -1  40 S13G28    30.29F WCI   7
EVELETH        MOSUNNY   21   3  45 S15G22    30.30F WCI   8
DULUTH HARBOR  MOSUNNY   21   7  53 S15G21    30.41F WCI   8
TWO HARBORS    MOSUNNY   21   7  53 SW15G21   30.35F WCI   8
SILVER BAY     MOSUNNY   19   7  58 S15       30.34F WCI   5
GRAND MARAIS     N/A     18  12  77 SW25      30.40F WCI   0
G MARAIS ARPRT SNOW      14   7  73 S13       30.29F VSB 1/2 WCI   0
$$
MNZ029>031-032-039>041-046>048-054>057-064-282000-
   West Central Minnesota

CITY           SKY/WX    TMP DP  RH WIND       PRES   REMARKS
FERGUS FALLS   SUNNY     23  10  58 S23       30.27F WCI   7
WHEATON        SUNNY     21  10  63 S20G26    30.26F WCI   6
MORRIS         MOSUNNY   21  12  68 S21G29    30.27F WCI   6
ALEXANDRIA     PTSUNNY   19   8  62 S20       30.28F WCI   3
ELBOW LAKE     FAIR      21  12  68 S23       30.26F WCI   5
WADENA         SUNNY     19   7  58 S21G26    30.25F WCI   3
APPLETON       MOSUNNY   25  10  54 S17G24    30.30F WCI  11
BENSON         MOSUNNY   23   9  54 SW17G23   30.31F WCI   9
ORTONVILLE     SUNNY     21   9  58 S15G22    30.27F WCI   8
MADISON        SUNNY     25  10  54 S18G26    30.30F WCI  11
WILLMAR        FAIR      21   9  58 S12G18    30.35F WCI   9
$$
MNZ033>034-036-042>043-049>051-058-059-282000-
   Central Minnesota

CITY           SKY/WX    TMP DP  RH WIND       PRES   REMARKS
ST CLOUD       SUNNY     20   4  50 SW21      30.37F WCI   4
SAUK CENTRE    FAIR      21   7  54 S21G28    30.32F WCI   5
PAYNESVILLE    SUNNY     17   6  61 SE18G25   30.35F WCI   1
AITKIN         SUNNY     25   3  39 S18G26    30.30F WCI  11
PINE RIVER     SUNNY     21   5  49 S17G24    30.30F WCI   7
BRAINERD       SUNNY     20   3  48 S20G31    30.31F WCI   4
STAPLES        SUNNY     19   3  49 S22G28    30.28F WCI   3
LONG PRAIRIE   FAIR      21   9  58 S21G28    30.30F WCI   6
LITTLE FALLS   SUNNY     21   3  45 S21       30.34F WCI   6
LITCHFIELD     SUNNY     19   9  63 S7        30.38F WCI  10
MAPLE LAKE     SUNNY     21   8  55 S10G18    30.41F WCI  10
$$
MNZ037-044-045-052-053-282000-
   East Central Minnesota

CITY           SKY/WX    TMP DP  RH WIND       PRES   REMARKS
PRINCETON      SUNNY     21   3  45 S18       30.39F WCI   6
MORA           SUNNY     19   3  49 S14       30.41F WCI   6
RUSH CITY      SUNNY     20   5  51 S12       30.42F WCI   8
MOOSE LAKE     SUNNY     21   3  45 SW10G17   30.36F WCI  10
HINCKLEY       FAIR      19   5  53 S15       30.40F WCI   5
CLOQUET        MOSUNNY   18   0  45 S15       30.34F WCI   3
MCGREGOR       SUNNY     21   5  49 S14G21    30.34F WCI   8
$$
MNZ071>073-080-081-089-090-097-098-282000-
   Southwest Minnesota

CITY           SKY/WX    TMP DP  RH WIND       PRES   REMARKS
MONTEVIDEO     PTSUNNY   25  10  54 SW17G26   30.33F WCI  11
GRANITE FALLS  PTSUNNY   23  12  62 S20G25    30.35F WCI   8
CANBY          SUNNY     22   9  58 S16       30.30F WCI   8
MARSHALL       SUNNY     21   9  58 S26       30.33F WCI   4
REDWOOD FALLS  MOSUNNY   21   8  57 S22       30.38F WCI   5
OLIVIA         MOSUNNY   21  10  63 S17G24    30.36F WCI   7
PIPESTONE      SUNNY     19  10  68 S24       30.27F WCI   2
WINDOM         SUNNY     19   7  58 S18       30.35F WCI   4
WORTHINGTON    MOSUNNY   25   5  42 S21G29    30.34F WCI  10
JACKSON        CLOUDY    19   9  63 S15G22    30.37F WCI   5
TRACY          SUNNY     22  10  61 S17G23    30.33F WCI   7
SLAYTON        MOSUNNY   19   8  63 S20       30.31F WCI   3
$$
MNZ065>067-074>077-082>085-091>093-282000-
   South Central Minnesota

CITY           SKY/WX    TMP DP  RH WIND       PRES   REMARKS
MANKATO        SUNNY     18   0  45 S17       30.44F WCI   2
NEW ULM        SUNNY     18   7  62 S18       30.40F WCI   2
ST JAMES       MOSUNNY   18   7  62 S18       30.42F WCI   2
FAIRMONT       PTSUNNY   16   7  67 S18       30.40F WCI  -1
GLENCOE        SUNNY     21  10  63 S12G20    30.41F WCI   9
FARIBAULT      SUNNY     16   3  57 S13       30.46F WCI   2
OWATONNA       SUNNY     12   1  62 S13       30.46F WCI  -3
ALBERT LEA     SUNNY     12   1  62 S12       30.45F WCI  -2
$$
MNZ078>079-086>088-094>096-282000-
   Southeast Minnesota

CITY           SKY/WX    TMP DP  RH WIND       PRES   REMARKS
ROCHESTER      SUNNY      9   1  70 S17       30.48F WCI  -9
RED WING       SUNNY     18   1  49 SW13      30.50F WCI   4
STANTON        SUNNY     16   5  61 S15       30.46F WCI   1
DODGE CENTER   MOSUNNY   10   1  67 S20       30.46F WCI  -8
WINONA         SUNNY     18   3  53 S7        30.56F WCI   8
AUSTIN         SUNNY     10   0  61 S9        30.48F WCI  -2
PRESTON        SUNNY      9  -1  64 S13       30.50F WCI  -6
$$
ABBREVIATIONS USED IN REMARKS
   TC - TEMPERATURES IN CELSIUS
  WCI - WIND CHILL INDEX
   HX - HEAT INDEX
  VSB - VISIBILITY
$$



USA.gov is the U.S. government's official web portal to all federal, state and local government web resources and services.